Stations météo

Publicité
Le Talut, France (7207): Température de l'air & dewpoint: 21.11.2020 04:00:00 - 27.11.2020 04:00:00 (CET)Le Talut, France (7207): Vitesse du vent & gusts: 21.11.2020 04:00:00 - 27.11.2020 04:00:00 (CET)Le Talut, France (7207): Direction du vent: 21.11.2020 04:00:00 - 27.11.2020 04:00:00 (CET)Le Talut, France (7207): reduced air pressure: 21.11.2020 04:00:00 - 27.11.2020 04:00:00 (CET)Le Talut, France (7207): visibility: 21.11.2020 04:00:00 - 27.11.2020 04:00:00 (CET)Le Talut, France (7207): Quantités de précipitations: 21.11.2020 04:00:00 - 27.11.2020 04:00:00 (CET)
Date & Time tt [°C] td [°C] ff [km/h] ff [knt] fx [km/h] fx [knt] dd ppp [hPa] vv [km] rr [mm]
27.11.2020 04:00:00 10,9 9,7 13 7 24 13 ENE 1016,1 - 0,0
27.11.2020 03:00:00 10,8 9,6 16 9 24 13 ENE 1016,3 - 0,0
27.11.2020 02:00:00 10,7 9,6 18 10 26 14 NE 1016,6 - 0,0
27.11.2020 01:00:00 10,8 9,7 14 8 23 12 NE 1017,0 - 0,0
27.11.2020 00:00:00 10,5 9,3 14 8 27 14 ENE 1017,1 - 0,0
26.11.2020 23:00:00 10,7 9,3 17 9 31 17 ENE 1017,2 - 0,0
26.11.2020 22:00:00 11,0 9,4 18 10 31 17 E 1017,5 - 0,0
26.11.2020 21:00:00 10,9 9,2 22 12 34 19 ENE 1017,6 - 0,0
26.11.2020 20:00:00 11,3 9,4 23 12 35 19 NE 1017,7 - 0,0
26.11.2020 19:00:00 11,4 9,6 21 11 30 16 NE 1017,4 - 0,0
26.11.2020 18:00:00 11,2 9,3 19 10 24 13 NE 1017,1 - 0,0
26.11.2020 17:00:00 11,8 9,4 17 9 27 14 NE 1016,7 - 0,0
26.11.2020 16:00:00 12,3 9,5 16 9 29 16 ENE 1016,4 15 0,0
26.11.2020 15:00:00 13,2 10,2 21 11 31 17 NE 1016,4 - 0,0
26.11.2020 14:00:00 13,3 10,1 18 10 32 18 ENE 1016,9 - 0,0
26.11.2020 13:00:00 12,4 10,3 22 12 35 19 ENE 1017,0 15 0,0
26.11.2020 12:00:00 11,5 9,6 25 14 36 19 ENE 1017,5 - 0,0
26.11.2020 11:00:00 11,4 9,8 24 13 36 20 ENE 1017,5 - 0,0
26.11.2020 10:00:00 10,7 9,5 21 11 39 21 E 1017,5 - 0,0
26.11.2020 09:00:00 10,1 9,2 19 11 31 17 ENE 1017,3 - 0,0
26.11.2020 08:00:00 10,1 9,0 21 11 30 16 ENE 1016,8 - 0,0
26.11.2020 07:00:00 10,4 9,3 22 12 31 17 NE 1016,5 - 0,0
26.11.2020 06:00:00 9,9 8,8 19 11 31 17 ENE 1016,2 - 0,0
26.11.2020 05:00:00 10,1 9,0 22 12 32 17 ENE 1015,9 - 0,0
26.11.2020 04:00:00 10,2 9,3 22 12 37 20 ENE 1016,1 - 0,0
26.11.2020 03:00:00 10,7 9,8 21 11 31 17 NE 1016,1 - 0,0
26.11.2020 02:00:00 10,7 9,6 17 9 23 13 ENE 1016,1 - 0,0
26.11.2020 01:00:00 10,8 9,6 16 9 24 13 E 1016,1 - 0,0
26.11.2020 00:00:00 12,7 10,9 15 8 31 17 E 1015,8 - 0,0
25.11.2020 23:00:00 13,2 11,6 16 9 39 21 E 1015,4 - 0,0
25.11.2020 22:00:00 13,2 11,9 14 8 37 20 E 1015,4 - 0,0
25.11.2020 21:00:00 13,6 12,5 18 10 46 25 E 1015,0 - 0,0
25.11.2020 20:00:00 13,6 12,7 19 10 42 23 E 1014,4 - 0,0
25.11.2020 19:00:00 13,6 12,7 16 9 46 25 E 1014,0 - 0,0
25.11.2020 18:00:00 13,6 12,7 20 11 41 22 E 1013,4 - 0,0
25.11.2020 17:00:00 14,0 12,7 20 11 44 24 SE 1012,9 - 0,0
25.11.2020 16:00:00 14,6 12,8 13 7 20 11 SE 1012,6 20 0,0
25.11.2020 15:00:00 15,0 12,9 13 7 21 12 S 1012,5 - 0,0
25.11.2020 14:00:00 14,7 12,6 17 9 34 18 S 1012,5 - 0,0
25.11.2020 13:00:00 14,8 12,7 21 11 32 17 S 1012,8 20 0,0
25.11.2020 12:00:00 14,7 12,7 23 12 38 21 S 1012,9 - 0,0
25.11.2020 11:00:00 14,7 12,7 27 15 42 23 S 1012,7 - 0,0
25.11.2020 10:00:00 14,6 12,6 31 17 51 27 S 1012,5 20 0,0
25.11.2020 09:00:00 14,5 12,5 36 20 53 28 S 1011,9 - 0,0
25.11.2020 08:00:00 14,5 12,2 36 19 52 28 S 1011,3 - 0,0
25.11.2020 07:00:00 14,5 12,2 39 21 54 29 S 1011,0 20 0,0
25.11.2020 06:00:00 14,3 12,7 27 14 50 27 S 1011,1 - 0,0
25.11.2020 05:00:00 14,4 12,9 35 19 54 29 S 1011,2 - 0,0
25.11.2020 04:00:00 14,3 12,8 35 19 50 27 S 1011,2 - 0,0
25.11.2020 03:00:00 14,2 12,8 34 19 53 29 S 1011,4 - 0,0
25.11.2020 02:00:00 14,3 12,7 41 22 53 29 S 1011,9 - 0,0
25.11.2020 01:00:00 14,3 12,7 35 19 45 24 S 1012,0 - 0,0
25.11.2020 00:00:00 14,1 12,5 31 17 41 22 S 1012,3 - 0,0
24.11.2020 23:00:00 14,1 12,3 29 16 40 22 S 1012,7 - 0,0
24.11.2020 22:00:00 14,0 11,9 28 15 37 20 S 1013,1 - 0,0
24.11.2020 21:00:00 13,8 11,7 22 12 33 18 S 1013,5 - 0,0
24.11.2020 20:00:00 13,8 11,5 23 12 38 20 SW 1013,9 - 0,0
24.11.2020 19:00:00 14,0 11,5 24 13 39 21 SSW 1013,9 - 0,0
24.11.2020 18:00:00 13,7 10,7 26 14 36 20 S 1014,1 - 0,0
24.11.2020 17:00:00 14,1 10,3 26 14 37 20 S 1014,2 - 0,0
24.11.2020 16:00:00 14,4 10,6 25 14 40 22 SSW 1014,6 25 0,0
24.11.2020 15:00:00 14,4 11,4 29 16 43 23 S 1015,5 - 0,0
24.11.2020 14:00:00 14,6 11,6 30 16 47 26 S 1016,4 - 0,0
24.11.2020 13:00:00 14,7 11,7 34 18 45 25 S 1017,3 - 0,0
24.11.2020 12:00:00 14,7 11,7 35 19 44 24 SSE 1018,4 - 0,0
24.11.2020 11:00:00 14,1 11,4 33 18 43 23 SSE 1019,3 - 0,0
24.11.2020 10:00:00 13,6 10,9 31 17 42 23 SSE 1019,7 20 0,0
24.11.2020 09:00:00 13,1 10,1 32 18 41 22 SSE 1020,1 - 0,0
24.11.2020 08:00:00 13,1 10,1 29 16 40 21 SSE 1020,4 - 0,0
24.11.2020 07:00:00 12,9 9,9 30 16 40 21 SSE 1020,7 - 0,0
24.11.2020 06:00:00 13,0 9,8 29 15 37 20 SSE 1021,3 - 0,0
24.11.2020 05:00:00 12,9 9,2 26 14 37 20 SSE 1021,8 - 0,0
24.11.2020 04:00:00 12,9 9,9 24 13 35 19 SE 1022,6 - 0,0
24.11.2020 03:00:00 12,7 9,5 26 14 36 20 SSE 1023,6 - 0,0
24.11.2020 02:00:00 12,6 9,6 26 14 33 18 SSE 1024,5 - 0,0
24.11.2020 01:00:00 12,5 9,3 24 13 34 18 SSE 1025,4 - 0,0
24.11.2020 00:00:00 12,3 8,4 27 14 34 19 SSE 1025,9 - 0,0
23.11.2020 23:00:00 12,2 8,3 23 13 35 19 SE 1026,5 - 0,0
23.11.2020 22:00:00 12,2 7,1 20 11 38 20 SE 1027,0 - 0,0
23.11.2020 21:00:00 11,8 8,3 21 11 36 19 SE 1027,5 - 0,0
23.11.2020 20:00:00 11,4 8,6 11 6 25 14 ESE 1028,0 - 0,0
23.11.2020 19:00:00 10,9 8,3 8 5 21 11 E 1028,4 - 0,0
23.11.2020 18:00:00 11,3 8,3 8 4 17 9 ESE 1028,5 - 0,0
23.11.2020 17:00:00 11,7 8,5 9 5 21 11 SE 1028,6 - 0,0
23.11.2020 16:00:00 12,0 8,5 10 6 25 13 SE 1028,6 20 0,0
23.11.2020 15:00:00 12,7 9,1 10 5 23 12 SE 1028,8 - 0,0
23.11.2020 14:00:00 12,7 9,0 15 8 25 14 SE 1029,3 - 0,0
23.11.2020 13:00:00 13,1 9,3 11 6 20 11 SE 1029,7 20 0,0
23.11.2020 12:00:00 13,5 9,7 9 5 18 10 SE 1030,3 - 0,0
23.11.2020 11:00:00 12,8 10,5 6 4 16 9 E 1030,3 - 0,0
23.11.2020 10:00:00 11,2 10,4 9 5 15 8 E 1030,3 18 0,0
23.11.2020 09:00:00 9,2 8,6 10 5 11 6 E 1030,1 - 0,0
23.11.2020 08:00:00 9,4 8,6 9 5 12 6 NE 1029,9 - 0,0
23.11.2020 07:00:00 9,3 8,5 10 5 11 6 NE 1029,7 25 0,0
23.11.2020 06:00:00 9,3 8,4 9 5 10 5 NE 1029,4 - 0,0
23.11.2020 05:00:00 9,4 8,3 9 5 10 6 ENE 1029,3 - 0,0
23.11.2020 04:00:00 9,6 8,5 10 5 13 7 ENE 1029,6 - 0,0
23.11.2020 03:00:00 9,2 8,1 11 6 12 6 NE 1029,8 - 0,0
23.11.2020 02:00:00 8,9 7,3 10 5 11 6 NE 1029,9 - 0,0
23.11.2020 01:00:00 9,8 8,4 6 3 10 5 NNE 1030,0 - 0,0
23.11.2020 00:00:00 9,4 7,7 7 4 10 5 N 1030,0 - 0,0
22.11.2020 23:00:00 9,0 7,3 9 5 14 8 N 1030,0 - 0,0
22.11.2020 22:00:00 9,4 7,3 11 6 13 7 N 1029,8 - 0,0
22.11.2020 21:00:00 9,5 7,3 9 5 12 7 N 1029,7 - 0,0
22.11.2020 20:00:00 9,4 7,0 12 6 13 7 N 1029,8 - 0,0
22.11.2020 19:00:00 9,0 6,8 7 4 10 5 NNE 1029,6 - 0,0
22.11.2020 18:00:00 9,8 7,0 8 4 11 6 NE 1029,1 - 0,0
22.11.2020 17:00:00 11,9 7,8 8 4 14 7 NE 1029,0 - 0,0
22.11.2020 16:00:00 12,6 7,7 7 4 16 9 NNE 1028,7 25 0,0
22.11.2020 15:00:00 13,2 8,3 5 3 22 12 ESE 1028,9 - 0,0
22.11.2020 14:00:00 12,9 8,2 11 6 31 17 E 1028,8 - 0,0
22.11.2020 13:00:00 12,8 8,1 11 6 32 17 E 1029,2 - 0,0
22.11.2020 12:00:00 12,5 7,6 14 7 34 18 E 1030,2 - 0,0
22.11.2020 11:00:00 11,9 7,2 16 9 37 20 E 1029,9 - 0,0
22.11.2020 10:00:00 10,6 6,9 16 9 30 16 E 1030,3 22 0,0
22.11.2020 09:00:00 8,2 5,5 16 9 27 14 ENE 1030,3 - 0,0
22.11.2020 08:00:00 8,0 4,9 17 9 24 13 E 1030,0 - 0,0
22.11.2020 07:00:00 8,2 5,3 16 8 21 11 E 1029,9 - 0,0
22.11.2020 06:00:00 7,9 5,4 13 7 19 11 ENE 1029,7 - 0,0
22.11.2020 05:00:00 9,6 6,1 15 8 24 13 E 1029,4 - 0,0
22.11.2020 04:00:00 10,0 6,5 14 7 24 13 E 1029,4 - 0,0
22.11.2020 03:00:00 9,7 6,0 16 9 23 13 E 1029,4 - 0,0
22.11.2020 02:00:00 10,4 6,5 14 8 25 14 E 1029,9 - 0,0
22.11.2020 01:00:00 11,0 7,3 9 5 25 13 ESE 1030,2 - 0,0
22.11.2020 00:00:00 11,4 7,9 13 7 27 15 SE 1030,4 - 0,0
21.11.2020 23:00:00 11,2 6,9 9 5 28 15 ESE 1030,8 - 0,0
21.11.2020 22:00:00 11,4 7,5 13 7 23 12 SE 1030,8 - 0,0
21.11.2020 21:00:00 11,5 7,0 9 5 18 10 SE 1031,1 - 0,0
21.11.2020 20:00:00 11,7 7,6 8 5 19 10 SE 1031,2 - 0,0
21.11.2020 19:00:00 12,0 7,9 12 6 20 11 SSE 1031,0 - 0,0
21.11.2020 18:00:00 12,2 7,9 10 5 18 10 S 1031,3 - 0,0
21.11.2020 17:00:00 12,3 7,8 10 5 24 13 S 1031,3 - 0,0
21.11.2020 16:00:00 12,6 8,1 12 6 22 12 S 1031,5 20 0,0
21.11.2020 15:00:00 12,8 7,9 14 8 22 12 S 1031,7 - 0,0
21.11.2020 14:00:00 13,5 8,3 13 7 22 12 S 1032,1 - 0,0
21.11.2020 13:00:00 12,9 7,6 16 8 25 14 S 1032,8 25 0,0
21.11.2020 12:00:00 12,9 7,6 14 7 22 12 S 1033,4 - 0,0
21.11.2020 11:00:00 12,9 6,9 13 7 24 13 SSW 1033,5 - 0,0
21.11.2020 10:00:00 12,8 7,5 14 7 25 14 S 1033,3 25 0,0
21.11.2020 09:00:00 11,9 7,2 12 7 21 12 SSE 1033,3 - 0,0
21.11.2020 08:00:00 11,6 6,5 13 7 33 18 S 1033,5 - 0,0
21.11.2020 07:00:00 11,4 6,5 17 9 28 15 S 1033,4 20 0,0
21.11.2020 06:00:00 11,4 6,7 10 5 16 9 SSE 1033,6 - 0,0
21.11.2020 05:00:00 11,4 6,7 10 5 23 12 S 1034,0 - 0,0
21.11.2020 04:00:00 11,5 7,2 13 7 21 11 SSE 1034,0 - 0,0

tt = Température de l'air
td = dewpoint
ff = Vitesse du vent
fx = gusts
dd = Direction du vent
ppp = reduced air pressure
vv = visibility
rr = Quantités de précipitations

stations d'obs. à proximité